Weather in Gulyay-Borisovka

Russia / Rostov Oblast     46°37′37″N   40°12′42″E
temp.,
°C
wind,
m/s
gust,
m/s
humid.,
%
clouds,
%
prec.,
mm/h
press.,
hPa
HPBL,
m
28 february, sun
sun2800:00+3wnw3597100 0.4 1015158
03:00+2nw2396100 0.6 101597
06:00+1nnw2393100 0.0 101653
09:00+2n358983 0.0 1017305
12:00+3n238480 0.0 1018474
15:00+4wnw347690 0.1 1018745
18:00+3wnw3584100 0.3 1019322
21:00+1nw249799 0.3 1020140
1 march, mon
mon100:00+1nw239694 0.0 1021133
03:00+1w229481 0.0 1022100
06:00+1w2389100 0.0 1023156
09:00+1wsw239598 0.1 1025204
12:00+2w2393100 0.1 1026296
15:00+3nw3375100 0.2 1026695
18:00+2nw127799 0.0 102695
21:00+1w128260 0.0 102822
2 march, tue
tue200:000wnw23850 0.0 102847
03:000w23860 0.0 102886
06:00−1wsw368916 0.0 1027161
09:00+1wsw587947 0.0 1027455
12:00+4wsw8105954 0.0 10251217
15:00+4w9136168 0.0 10221235
18:00+2wsw81472100 0.0 1020903
21:00+2wsw101681100 0.0 1020798
3 march, wed
wed300:00+2w91597100 1.2 1019756
03:00+2w51095100 2.9 1018535
06:000wnw499195 0.1 1019342
09:00+2wnw697765 0.1 1020866
12:00+4wnw796624 0.0 10201124
15:00+5wnw7106356 0.1 10201494
18:00+3nnw5106793 0.2 1022601
21:000wnw377553 0.2 1025166
4 march, thu
thu400:000wnw35790 0.0 1026151
03:00−1wnw34780 0.0 1026120
06:00−1wnw23780 0.0 102786
09:00+1wsw34650 0.0 1028315
12:00+5wsw45480 0.0 1027827
15:00+6wsw45470 0.0 10251084
18:00+3sw34620 0.0 102475
21:00+1sw34710 0.0 102369